Flag for Germany Weather past 2 weeks in Bocholt, North Rhine-Westphalia, Germany

Now
75 °F

Sunny.


Feels Like: 77 °F
Forecast: 49 / 76 °F
Wind: 2 mph from North

Location: Niederrhein

Current Time: Aug 1, 2015 at 4:59:20 PM

Latest Report: Aug 1, 2015 at 4:20 PM


Visibility: 10 mi

Pressure: 29.98 "Hg

Humidity: 36%

Dew point: 46 °F

Location of BocholtLocation

Historic Weather in Bocholt — Graph

°F

Bocholt temperature yesterday

Maximum temperature yesterday: 68 °F (at 3:50 PM)
Minimum temperature yesterday: 45 °F (at 5:20 AM)
Average temperature yesterday: 60 °F

Past Weeks' High & Low Weather Summary

 TemperatureHumidityPressure
High88 °F (Jul 17, 3:20 PM)100% (Jul 19, 6:20 AM)30.15 "Hg (Jul 19, 6:20 AM)
Low45 °F (Jul 31, 5:20 AM)36% (Jul 18, 4:50 PM)29.47 "Hg (Jul 25, 6:20 AM)
Average65 °F70%29.88 "Hg
* Reported Jul 17 3:20 PM — Aug 1 3:50 PM, Bocholt, Weather by CustomWeather, © 2015

Note: Actual official high and low records may vary slightly from our data, if they occured in-between our weather recording intervals... More about our weather records

Advertising

Bocholt weather history for previous 24 hours

 ConditionsComfort  
Time TempWeatherWind HumidityBarometerVisibility
3:50 PM
Sat, Aug 1
73 °FSunny.5 mph36%29.98 "Hg10 mi
3:20 PM73 °FSunny.3 mph38%29.98 "Hg10 mi
2:50 PM73 °FSunny.2 mph38%29.98 "Hg10 mi
2:20 PM73 °FSunny.3 mph38%29.98 "Hg10 mi
1:50 PM72 °FSunny.3 mph41%29.98 "Hg10 mi
1:20 PM73 °FSunny.7 mph38%30.01 "Hg10 mi
12:50 PM72 °FSunny.2 mph38%30.01 "Hg10 mi
12:20 PM72 °FPassing clouds.5 mph41%30.01 "HgN/A
11:50 AM70 °FSunny.3 mph40%30.01 "Hg10 mi
11:20 AM68 °FSunny.3 mph46%30.01 "Hg10 mi
10:50 AM68 °FSunny.3 mph49%30.01 "Hg10 mi
10:20 AM66 °FSunny.1 mph56%30.01 "Hg10 mi
9:50 AM63 °FSunny.2 mph59%30.01 "Hg10 mi
9:20 AM61 °FSunny.No wind63%30.01 "Hg10 mi
8:50 AM59 °FSunny.3 mph68%30.01 "Hg10 mi
8:20 AM57 °FSunny.1 mph72%30.01 "Hg10 mi
7:50 AM55 °FClear.2 mph72%29.98 "Hg10 mi
7:20 AM54 °FClear.2 mph77%29.98 "Hg10 mi
6:50 AM52 °FClear.1 mph82%30.01 "Hg10 mi
6:20 AM50 °FClear.No wind88%30.01 "Hg10 mi
5:50 AM52 °FClear.1 mph82%29.98 "Hg10 mi
5:20 AM52 °FClear.No wind82%30.01 "Hg10 mi
4:50 AM52 °FClear.1 mph77%30.01 "Hg10 mi
11:50 PM
Fri, Jul 31
57 °FClear.3 mph67%30.04 "Hg10 mi
11:20 PM57 °FSunny.2 mph67%30.07 "Hg10 mi
10:50 PM57 °FSunny.3 mph67%30.04 "Hg10 mi
10:20 PM59 °FSunny.3 mph63%30.04 "Hg10 mi
9:50 PM59 °FSunny.2 mph59%30.04 "Hg10 mi
9:20 PM61 °FSunny.2 mph55%30.04 "Hg10 mi
8:50 PM63 °FSunny.2 mph52%30.04 "Hg10 mi
8:20 PM64 °FSunny.3 mph49%30.04 "Hg10 mi
7:50 PM64 °FPassing clouds.5 mph43%30.07 "HgN/A
7:20 PM66 °FSunny.2 mph40%30.07 "Hg10 mi
6:50 PM66 °FSunny.3 mph40%30.07 "Hg10 mi
6:20 PM68 °FSunny.3 mph38%30.07 "Hg10 mi
5:50 PM68 °FSunny.1 mph40%30.07 "Hg10 mi
5:20 PM66 °FSunny.6 mph40%30.09 "Hg10 mi
4:50 PM68 °FSunny.No wind38%30.09 "Hg10 mi
4:20 PM66 °FPassing clouds.6 mph40%30.09 "HgN/A
Weather by CustomWeather, © 2015

See weather overviewHow to use our weather pages